Location: Newark
(7.0858°N, 171.3717°E)
Time: 23:12:57
(UTC+00:00)

A-11 Canister half - Visible Passes

Search period start: 29 July 2021 00:00
Search period end: 08 August 2021 00:00
Orbit: 1527 x 1682 km, 47.3° (Epoch: 29 July)

Date Brightness Start Highest point End Pass type
(mag) Time Alt. Az. Time Alt. Az. Time Alt. Az.
29 Jul 9.7 07:51:51 10° NNW 08:00:21 36° NE 08:05:28 22° E visible
29 Jul 9.6 09:56:18 10° WNW 10:03:47 45° WSW 10:03:47 45° WSW visible
30 Jul 9.8 07:30:18 10° NNW 07:38:40 34° NE 07:45:19 15° E visible
30 Jul 9.3 09:34:31 10° NW 09:43:35 52° SW 09:43:39 52° SW visible
31 Jul 9.9 07:08:46 10° NNW 07:16:58 31° NE 07:24:56 10° ESE visible
31 Jul 9.2 09:12:46 10° NW 09:21:57 56° SW 09:23:34 51° SSW visible
01 Aug 9.2 08:51:01 10° NW 09:00:18 61° SW 09:03:33 42° S visible
02 Aug 9.2 08:29:17 10° NW 08:38:40 65° SW 08:43:35 31° SSE visible
03 Aug 9.1 08:07:33 10° NW 08:17:02 70° SW 08:23:39 22° SSE visible
03 Aug 11.0 10:20:17 10° WSW 10:21:55 10° SW 10:22:00 10° SW visible
04 Aug 9.1 07:45:51 10° NW 07:55:23 75° SW 08:03:47 14° SSE visible
04 Aug 10.9 09:57:08 10° WSW 10:00:13 12° SW 10:02:08 11° SW visible
05 Aug 9.1 07:24:08 10° NW 07:33:45 80° SW 07:43:06 10° SE visible
05 Aug 10.9 09:34:30 10° WSW 09:38:32 13° SW 09:42:17 10° SSW visible
06 Aug 9.1 07:02:26 10° NW 07:12:06 85° SW 07:21:29 10° SE visible
06 Aug 10.9 09:12:06 10° W 09:16:51 15° SW 09:21:36 10° SSW visible
06 Aug 10.9 17:54:54 10° S 18:02:07 23° SE 18:09:25 10° E visible
07 Aug 10.9 08:49:48 10° W 08:55:11 16° SW 09:00:31 10° SSW visible
07 Aug 11.0 17:33:36 10° S 17:40:26 21° SE 17:47:20 10° E visible
